Location: Ferri�res
(48.8235°N, 2.7066°E)
Time: 18:14:53
(UTC+00:00)

Daily predictions for brighter satellites

Satellite Brightness Start Highest point End
(mag) Time Altitude Azimuth Time Altitude Azimuth Time Altitude Azimuth
CZ-4B R/B 3.3 16:57:50 10° SSE 17:03:26 87° ENE 17:08:58 10° NNW
YAOGAN 1 4.1 17:02:25 10° E 17:05:09 17° ENE 17:07:52 10° NNE
Okean O Rocket 1.6 17:02:56 10° SSE 17:07:18 83° ENE 17:11:40 10° NNW
USA 308 3.3 17:03:16 10° WNW 17:07:27 49° NNE 17:11:38 10° E
SeaSat 1 4.2 17:04:52 10° ENE 17:07:35 15° NE 17:10:17 10° N
Cosmos 1331 Rocket 4.0 17:03:23 10° S 17:08:27 62° ESE 17:13:34 10° NNE
Cosmos 1408 4.4 17:06:52 10° NE 17:08:42 13° ENE 17:10:33 10° E
Timation 2 Rocket 4.1 17:02:28 10° NNW 17:09:05 77° ENE 17:15:54 10° SE
Meteor 2-14 Rocket 4.4 17:04:12 10° N 17:10:24 79° E 17:16:31 10° SSE
Cosmos 2227 Rocket 2.5 17:07:35 10° NNW 17:13:03 46° NE 17:18:28 10° SE
Cosmos 1908 3.9 17:09:17 10° SSW 17:13:05 61° WNW 17:16:57 10° N
NOAA 12 4.2 17:08:20 10° SSE 17:13:38 88° ENE 17:19:00 10° NNW
Cosmos 1726 Rocket 3.8 17:09:29 10° SSE 17:13:39 46° E 17:17:53 10° NNE
USA 215 3.9 17:08:04 10° ENE 17:14:11 44° N 17:20:17 10° WNW
Cosmos 1892 3.9 17:11:38 10° NNE 17:14:47 23° ENE 17:17:54 10° ESE
ATLAS 2AS CENTAUR R/B 3.9 17:08:57 10° NW 17:15:39 30° NNE 17:21:58 10° ENE
Cosmos 2263 Rocket 4.0 17:12:55 10° N 17:16:00 15° NNE 17:19:04 10° ENE
Helios 1A Rocket 3.9 17:12:54 10° ESE 17:16:19 26° ENE 17:19:44 10° N
Cosmos 1758 Rocket 3.9 17:11:57 10° NNW 17:16:21 72° W 17:20:40 10° S
Cosmos 2228 3.0 17:12:31 10° S 17:16:44 66° E 17:21:00 10° NNE
Aureole 3 Rocket 3.9 17:14:37 10° SSE 17:18:25 35° E 17:23:31 10° NNE
Cosmos 1400 Rocket 3.6 17:14:55 10° SSE 17:18:35 32° E 17:22:14 10° NNE
Cosmos 292 Rocket 3.8 17:16:06 10° S 17:20:48 61° ESE 17:25:36 10° NNE
Cosmos 968 Rocket 3.9 17:17:44 10° NNW 17:22:42 41° ENE 17:27:36 10° SE
IRS-1C Rocket 4.3 17:17:47 10° SE 17:22:49 48° ENE 17:27:53 10° N
Cosmos 1553 Rocket 4.5 17:19:41 10° SSE 17:25:24 37° E 17:31:04 10° NNE
Cosmos 1300 2.6 17:23:07 10° S 17:26:53 63° E 17:30:40 10° NNE
FALCON 9 DEB 3.2 17:23:45 10° SW 17:26:56 57° SSE 17:29:34 14° ENE
Lacrosse 5 3.0 17:23:12 10° WNW 17:27:48 33° N 17:32:14 11° ENE
Cosmos 1606 Rocket 3.5 17:25:17 10° S 17:29:40 85° E 17:34:06 10° N
FALCON 9 DEB 3.0 17:26:51 10° SW 17:30:01 63° SSE 17:32:31 15° ENE
CZ-4 R/B 2.2 17:26:48 10° SE 17:30:05 27° ENE 17:33:21 10° N
Cosmos 1697 Rocket 3.8 17:25:57 10° SSE 17:30:07 22° E 17:34:19 10° NE
SMAP 3.8 17:26:38 10° S 17:31:13 59° W 17:35:50 10° NNW
Cosmos 2058 3.8 17:28:22 10° NNE 17:31:51 26° ENE 17:35:19 10° SE
Cosmos 1825 3.7 17:30:38 10° NNE 17:33:07 17° ENE 17:34:21 14° E
SAR-Lupe-4 3.8 17:30:44 10° NNE 17:34:12 45° E 17:37:39 10° S
ERBS 4.2 17:32:35 10° NW 17:35:09 20° N 17:37:25 11° NE
SKYMED 2 3.9 17:33:36 10° NNE 17:37:45 42° E 17:41:53 10° S
CZ-2D R/B 3.6 17:34:30 10° SE 17:38:04 41° ENE 17:41:40 10° N
Cosmos 1110 Rocket 4.3 17:32:53 10° SSW 17:38:07 71° WNW 17:43:21 10° NNE
ERS-2 2.1 17:34:32 10° NNE 17:38:12 87° WNW 17:41:50 10° SSW
FALCON 9 DEB 3.8 17:35:25 10° WNW 17:38:43 42° N 17:40:54 18° ENE
ADEOS Rocket 3.9 17:33:58 10° N 17:40:13 58° WNW 17:47:06 10° SW
SL-4 R/B 2.0 17:36:47 10° WNW 17:40:15 55° N 17:42:47 18° E
Cosmos 1302 Rocket 4.0 17:35:05 10° S 17:40:16 62° ESE 17:45:30 10° NNE
NOAA 11 4.2 17:35:58 10° SSE 17:41:26 86° WSW 17:46:54 10° NNW
Cosmos 1346 Rocket 3.4 17:37:58 10° N 17:41:38 33° ENE 17:45:17 10° SE
Okean-O 3.0 17:38:30 10° SE 17:42:41 42° ENE 17:46:53 10° N
FALCON 9 DEB 2.9 17:40:08 10° WSW 17:43:22 75° SSE 17:45:25 21° ENE
USA 281 4.0 17:37:31 10° S 17:43:57 56° WSW 17:50:25 10° NNW
SL-08 R/B 4.5 17:38:49 10° N 17:44:57 60° ENE 17:50:58 10° SSE
Cosmos 1340 2.5 17:41:28 10° N 17:45:16 71° ENE 17:49:02 10° SSE
Cosmos 1486 Rocket 4.0 17:42:33 10° NNW 17:47:54 67° ENE 17:53:11 10° SSE
Cosmos 1745 Rocket 4.2 17:43:38 10° N 17:49:45 49° ENE 17:55:52 10° SSE
Cosmos 1315 Rocket 3.8 17:47:49 10° SSE 17:51:06 25° E 17:54:02 12° NE
SAR-Lupe-1 4.0 17:48:31 10° NNE 17:52:07 69° ESE 17:55:41 10° S
Cosmos 1689 Rocket 2.1 17:49:58 10° NNE 17:52:48 49° E 17:55:37 10° S
Cosmos 2297 Rocket 2.3 17:47:10 10° NNW 17:52:52 83° WSW 17:58:32 10° SSE
USA 305 2.9 17:48:37 10° WNW 17:52:56 72° NNE 17:55:44 21° ESE
Cosmos 1980 Rocket 3.5 17:49:41 10° SE 17:53:22 18° E 17:53:25 18° E
FALCON 9 DEB 2.9 17:50:44 10° WSW 17:53:57 89° NW 17:55:34 27° ENE
In-Cosmos 22 Rocket 4.0 17:49:37 10° N 17:55:00 80° ENE 18:00:29 10° SSE
CZ-4B R/B 2.1 17:52:26 10° N 17:55:35 53° WNW 17:58:39 10° SSW
Cosmos 1503 Rocket 4.2 17:52:48 10° NNW 17:57:52 48° ENE 18:02:57 10° SE
USA 306 2.8 17:55:06 10° WNW 17:59:24 77° NNE 18:01:57 24° ESE
Aureole 3 2.5 17:57:33 10° S 18:00:37 87° W 18:03:37 10° N
Cosmos 2058 Rocket 3.2 18:00:52 10° S 18:05:21 83° WNW 18:09:55 10° N
CZ-2C R/B 3.3 18:03:15 10° SSE 18:08:56 63° ENE 18:14:28 10° N
Cosmos 1354 Rocket 4.1 18:04:55 10° NNW 18:10:05 53° ENE 18:14:14 16° SE
CZ-4C R/B 3.7 18:07:50 10° NW 18:13:34 30° NNE 18:17:00 22° ENE
Cosmos 1455 2.4 18:11:11 10° SSE 18:14:47 45° E 18:17:17 18° NNE
Cosmos 1992 Rocket 4.0 18:12:59 10° S 18:18:02 54° ESE 18:22:43 12° NNE
Cosmos 1709 Rocket 4.2 18:13:13 10° N 18:19:23 48° ENE 18:25:31 10° SSE
Meteor 2-10 Rocket 3.4 18:15:14 10° S 18:20:28 67° E 18:25:33 10° NNE
Cosmos 1076 Rocket 3.4 18:16:55 10° N 18:21:08 60° ENE 18:25:00 12° SSE
Cosmos 2278 4.3 18:19:34 10° SSE 18:24:34 33° ESE 18:24:51 32° E
Cosmos 2219 4.3 18:19:13 10° NW 18:24:43 47° WSW 18:30:11 10° S
COSMO-SKYMED 1 2.9 18:21:33 10° N 18:25:52 65° WNW 18:30:10 10° SSW
Ariane Rocket 4.0 18:30:46 27° NE 18:30:46 27° NE 18:34:21 10° N
Geosat 4.2 18:29:48 36° ENE 18:31:16 46° ESE 18:36:05 10° S
Cosmos 44 4.4 18:27:22 10° WSW 18:31:42 40° NW 18:35:30 14° NNE
Cosmos 2082 3.7 18:27:05 10° NNW 18:32:51 87° WSW 18:38:04 13° SSE
ATLAS 5 CENTAUR R/B 4.0 18:31:02 10° NW 18:33:58 16° N 18:36:16 12° NNE
H-2A R/B 2.0 18:30:04 10° SSE 18:35:28 74° ENE 18:40:57 10° N
Cosmos 883 Rocket 4.5 18:29:48 10° SSE 18:35:45 55° E 18:41:43 10° NNE
SJ-11-01 4.1 18:34:07 15° SSE 18:38:02 78° ENE 18:42:43 10° N
ARGOS 3.1 18:36:01 26° SE 18:39:02 61° ENE 18:44:23 10° N
CRYOSAT 2 4.2 18:35:25 10° N 18:40:18 77° E 18:45:10 10° S
YAOGAN 1 2.9 18:36:27 10° S 18:40:46 67° WSW 18:45:05 10° NNW
S3M 3.9 18:35:21 10° S 18:41:28 89° W 18:47:42 10° N
USA 307 3.1 18:38:28 10° WNW 18:42:44 65° SSW 18:43:36 50° SSE
Cosmos 2315 Rocket 4.0 18:37:14 10° SSE 18:43:11 51° E 18:49:10 10° NNE
GEOS 3 Rocket 3.6 18:41:32 38° SE 18:43:42 81° NE 18:49:08 10° NW
Cosmos 1408 3.3 18:40:29 10° NNW 18:44:04 54° W 18:47:39 10° S
SeaSat 1 2.5 18:43:27 51° E 18:44:14 58° NE 18:49:06 10° NNW
Cosmos 1656 4.1 18:38:53 10° SW 18:44:25 63° WNW 18:50:04 10° NNE
NOSS 3-4 (A) 3.9 18:39:07 10° NW 18:45:54 61° NE 18:48:36 40° ESE
NOSS 3-4 (C) 3.9 18:39:13 10° NW 18:46:00 61° NE 18:48:40 40° ESE
USA 308 3.2 18:43:24 10° WNW 18:47:39 61° SW 18:48:20 52° S
Cosmos 1812 Rocket 3.4 18:43:27 10° S 18:47:51 81° E 18:52:15 10° NNE
Cosmos 2369 3.6 18:42:45 10° SSW 18:48:26 72° ESE 18:51:18 30° NE
DEBRIS 4.3 18:30:13 10° WSW 18:49:52 71° SSE 18:51:52 45° E
NOSS 3-3 (A) 3.8 18:50:18 10° SW 18:56:10 83° SE 18:59:03 36° NE
NOSS 3-3 (C) 3.8 18:50:25 10° SW 18:56:17 82° SE 18:59:06 36° NE
USA 215 3.5 18:54:35 41° ENE 18:56:34 55° NNE 19:02:55 10° WNW
Cosmos 2227 Rocket 3.8 18:51:54 10° NW 18:56:58 34° WSW 19:02:00 10° S
MOS 1 Rocket 3.2 18:52:57 10° NNE 18:57:39 89° SE 19:02:38 10° SSW
CSL-04 Rocket 3.8 18:53:15 10° S 18:58:47 75° WSW 19:04:19 10° NNW
Cosmos 2263 Rocket 2.4 18:55:47 10° NNW 19:01:09 51° NE 19:01:09 51° NE
CZ-4 R/B 3.2 19:01:40 10° SSW 19:05:04 29° W 19:08:28 10° NW
Cosmos 2151 4.0 19:02:25 10° N 19:05:02 37° N 19:05:02 37° N
ATLAS 2AS CENTAUR R/B 2.8 19:00:30 10° NW 19:08:05 65° NE 19:09:28 55° E
BREEZE-M R/B 4.0 19:04:21 10° WNW 19:08:49 77° SSW 19:10:34 53° SE
Cosmos 1825 3.2 19:05:15 10° NNW 19:08:52 44° W 19:09:13 43° WSW
Lacrosse 5 2.6 19:06:57 10° NW 19:11:26 40° N 19:11:26 40° N
Cosmos 1697 Rocket 2.9 19:07:57 10° SW 19:13:33 68° WNW 19:16:32 28° NNE
Cosmos 1777 Rocket 4.1 19:10:14 10° NNW 19:14:48 65° N 19:14:48 65° N
Cosmos 44 Rocket 4.0 19:13:54 10° SW 19:17:11 45° SSW 19:17:11 45° SSW
SL-4 R/B 3.5 19:16:18 10° WNW 19:18:22 32° W 19:18:22 32° W
Cosmos 1980 Rocket 2.6 19:31:02 10° SSW 19:35:17 53° SW 19:35:17 53° SW
BREEZE-M TANK 4.5 19:36:40 10° W 19:39:31 25° WSW 19:39:31 25° WSW
SJ 16-02 4.2 19:55:40 10° NNW 19:55:54 11° NNW 19:55:54 11° NNW
CZ-4C R/B 3.1 19:56:15 10° NW 20:02:10 63° N 20:02:10 63° N
ATLAS 5 CENTAUR R/B 4.4 20:16:23 10° NNW 20:17:47 16° NNW 20:17:47 16° NNW
USA 215 4.3 20:41:56 41° WNW 20:41:56 41° WNW 20:46:02 10° WNW
Cosmos 2263 Rocket 4.2 20:40:07 10° NW 20:42:52 24° WNW 20:42:52 24° WNW
ATLAS 2AS CENTAUR R/B 4.2 20:52:03 10° NW 20:56:55 32° W 20:56:55 32° W
